Miscellaneous Local Product
Issued by NWS North Platte, NE

Home | Current Version | Previous Version | Graphics & Text | Print | Product List | Glossary On
Versions: 1 2 3 4 5 6 7 8 9 10 11 12 13 14 15 16 17 18 19 20 21 22 23 24 25 26 27 28 29 30 31 32 33 34 35 36 37 38 39 40 41 42 43 44 45 46 47 48 49 50
789
AXUS43 KLBF 231610
MISLBF


WESTERN AND NORTH CENTRAL NEBRASKA HOURLY WEATHER ROUNDUP
NATIONAL WEATHER SERVICE NORTH PLATTE NE
1100 AM CDT MON OCT 23 2017

NOTE: "FAIR" INDICATES FEW OR NO CLOUDS BELOW 12,000 FEET WITH NO
SIGNIFICANT WEATHER AND/OR OBSTRUCTIONS TO VISIBILITY.

NOTE: STATIONS NOT REPORTING VARIABLES SUCH AS SKY/WEATHER OR
PRESSURE ARE PROVIDED BY RAWS AND APRS NETWORKS AND ARE NOT UNDER
NATIONAL WEATHER SERVICE QUALITY CONTROL.

...OBSERVATIONS IN AND NEAR THE EASTERN PANHANDLE OF NEBRASKA...

CITY           SKY/WX    TMP DP  RH WIND       PRES   REMARKS
PINE RIDGE     SUNNY     53  26  35 NW14G20   30.31R
GORDON         FAIR      49  30  48 NW13G20   30.30R
CHADRON        SUNNY     52  22  30 NW20G28   30.35R
ALLIANCE       SUNNY     50  22  33 MISG      30.34R
SIDNEY         PTSUNNY   51  21  30 N29G39    30.36R
CRESCENT LAKE    N/A     51  22  31 NW18G26     N/A
$$

...OBSERVATIONS IN NORTHERN NEBRASKA AND FAR SOUTHERN SOUTH DAKOTA...

CITY           SKY/WX    TMP DP  RH WIND       PRES   REMARKS
WINNER         FAIR      54  34  46 NW22G32   30.16R
VALENTINE      SUNNY     56  27  32 NW32G44   30.21R
THEDFORD       SUNNY     55  28  34 NW25G38   30.25R
AINSWORTH      SUNNY     54  30  40 NW28G37   30.19S
O`NEILL        SUNNY     55  34  45 NW33G43   30.13R
ORD            SUNNY     57  31  37 NW26G44   30.15R
BROKEN BOW     SUNNY     56  29  35 N25G46    30.19R
HALSEY           N/A     54  24  31 NW16G26     N/A
BUTTE            N/A     54  35  48 NW28G40     N/A
CHAMBERS         N/A     56  33  41 N5G13       N/A
EWING            N/A     56  37  49 NW20G31     N/A
$$

...OBSERVATIONS IN SOUTHWEST NEBRASKA AND FAR NORTHEAST COLORADO...

CITY           SKY/WX    TMP DP  RH WIND       PRES   REMARKS
HOLYOKE        FAIR      54  23  30 NW21G30   30.34S
IMPERIAL       CLOUDY    53  26  35 NW20G26   30.31R
OGALLALA       CLOUDY    56  24  29 N20G26    30.29F
NORTH PLATTE   SUNNY     56  31  38 NW22G35   30.28R
MCCOOK         PTSUNNY   56  33  42 NW18      30.27R
LEXINGTON      SUNNY     58  28  30 NW29G40   30.22S
STAPLETON        N/A     54  28  37 NW9G17      N/A
GOTHENBURG       N/A     53  29  39 NW15        N/A
CALLAWAY         N/A     54  30  39 NW24        N/A
$$

...OBSERVATIONS IN CENTRAL LINCOLN COUNTY AREA...

CITY           SKY/WX    TMP DP  RH WIND       PRES   REMARKS
N.P. AIRPORT   SUNNY     56  31  38 NW22G35   30.28R
N.P. DOWNTOWN    N/A     55  33  44 NW8G15      N/A
N.P. SOUTHEAST   N/A     55  33  44 N10G20      N/A
N.P. HILLCREST   N/A     55  31  39 NW23G32     N/A
$$

...SOME OBSERVATIONS FROM AROUND THE REGION...

CITY           SKY/WX    TMP DP  RH WIND       PRES   REMARKS
DENVER         CLOUDY    40  29  64 E9        30.47F WCI  34
LIMON          CLOUDY    43  28  55 N18G31    30.47R
ASPEN          CLOUDY    44  29  55 S6        30.55R
LARAMIE        CLOUDY    39  21  48 N12       30.44R WCI  32
CASPER         SUNNY     47  17  30 W14       30.45R
CHEYENNE       CLOUDY    39  24  55 N14G22    30.42S WCI  31
SCOTTSBLUFF    SUNNY     52  21  29 NW20G28   30.39R
GRAND ISLAND   MOSUNNY   59  30  33 NW32G39   30.13S
OMAHA          PTSUNNY   64  40  41 NW26G33   29.97R
SIOUX FALLS    MOSUNNY   56  39  53 NW25G36   29.96S
PIERRE         SUNNY     53  34  48 NW32G45   30.11R
RAPID CITY     SUNNY     53  22  29 NW30G44   30.28R
BISMARCK       MOSUNNY   49  36  61 NW16G26   30.10R
KANSAS CITY    PTSUNNY   59  42  53 N14G24    29.95R
HILL CITY      CLOUDY    60  33  36 N32G43    30.25R
WICHITA        CLOUDY    63  42  46 N21G29    30.09R
DODGE CITY     CLOUDY    62  32  32 N26G41    30.23R
OKLAHOMA CITY  PTSUNNY   64  42  44 MISG      30.09R
DALLAS         MOSUNNY   70  42  36 SW10      30.12R
AMARILLO       SUNNY     64  35  34 N25G33    30.24R
$$




USA.gov is the U.S. government's official web portal to all federal, state and local government web resources and services.